Time,TemperatureF,DewpointF,PressureIn,WindDirection,WindDirectionDegrees,WindSpeedMPH,WindSpeedGustMPH,Humidity,HourlyPrecipIn,Conditions,Clouds,dailyrainin,SolarRadiationWatts/m^2,SoftwareType,DateUTC
2013-06-03 00:02:00,36.0,35.0,-100.00,West,268,0.0,1.0,95,0.00,,,0.05,1.000000,,2013-06-03 05:02:00,
2013-06-03 00:12:00,36.0,35.0,-100.00,West,268,0.0,1.0,95,0.00,,,0.05,1.000000,,2013-06-03 05:12:00,
2013-06-03 00:22:00,36.0,35.0,-100.00,West,268,0.0,1.0,95,0.00,,,0.05,1.000000,,2013-06-03 05:22:00,
2013-06-03 00:32:00,36.0,35.0,-100.00,West,268,0.0,1.0,95,0.00,,,0.05,1.000000,,2013-06-03 05:32:00,
2013-06-03 00:52:00,34.0,33.0,-100.00,South,171,0.0,0.0,96,0.00,,,0.03,1.000000,,2013-06-03 05:52:00,
2013-06-03 01:02:00,34.0,33.0,-100.00,South,171,0.0,0.0,96,0.00,,,0.03,1.000000,,2013-06-03 06:02:00,
2013-06-03 01:12:00,34.0,33.0,-100.00,South,171,0.0,0.0,96,0.00,,,0.03,1.000000,,2013-06-03 06:12:00,
2013-06-03 01:22:00,34.0,33.0,-100.00,South,171,0.0,0.0,96,0.00,,,0.03,1.000000,,2013-06-03 06:22:00,
2013-06-03 01:32:00,34.0,33.0,-100.00,South,171,0.0,0.0,96,0.00,,,0.03,1.000000,,2013-06-03 06:32:00,
2013-06-03 01:52:00,33.0,32.0,-100.00,SSE,165,0.0,0.0,96,0.00,,,0.02,1.000000,,2013-06-03 06:52:00,
2013-06-03 02:02:00,33.0,32.0,-100.00,SSE,165,0.0,0.0,96,0.00,,,0.02,1.000000,,2013-06-03 07:02:00,
2013-06-03 02:12:00,33.0,32.0,-100.00,SSE,165,0.0,0.0,96,0.00,,,0.02,1.000000,,2013-06-03 07:12:00,
2013-06-03 02:22:00,33.0,32.0,-100.00,SSE,165,0.0,0.0,96,0.00,,,0.02,1.000000,,2013-06-03 07:22:00,
2013-06-03 02:32:00,33.0,32.0,-100.00,SSE,165,0.0,0.0,96,0.00,,,0.02,1.000000,,2013-06-03 07:32:00,
2013-06-03 03:02:00,32.0,31.0,-100.00,SSW,204,0.0,2.0,96,0.00,,,0.02,1.000000,,2013-06-03 08:02:00,
2013-06-03 03:12:00,32.0,31.0,-100.00,SSW,204,0.0,2.0,96,0.00,,,0.02,1.000000,,2013-06-03 08:12:00,
2013-06-03 03:22:00,32.0,31.0,-100.00,SSW,204,0.0,2.0,96,0.00,,,0.02,1.000000,,2013-06-03 08:22:00,
2013-06-03 03:32:00,32.0,31.0,-100.00,SSW,204,0.0,2.0,96,0.00,,,0.02,1.000000,,2013-06-03 08:32:00,
2013-06-03 03:52:00,31.0,30.0,-100.00,SSW,208,0.0,0.0,96,0.00,,,0.01,1.000000,,2013-06-03 08:52:00,
2013-06-03 04:02:00,31.0,30.0,-100.00,SSW,208,0.0,0.0,96,0.00,,,0.01,1.000000,,2013-06-03 09:02:00,
2013-06-03 04:12:00,31.0,30.0,-100.00,SSW,208,0.0,0.0,96,0.00,,,0.01,1.000000,,2013-06-03 09:12:00,
2013-06-03 04:22:00,31.0,30.0,-100.00,SSW,208,0.0,0.0,96,0.00,,,0.01,1.000000,,2013-06-03 09:22:00,
2013-06-03 04:33:00,31.0,30.0,-100.00,SSW,208,0.0,0.0,96,0.00,,,0.01,1.000000,,2013-06-03 09:33:00,
2013-06-03 04:53:00,30.0,29.0,-100.00,South,179,0.0,0.0,96,0.00,,,0.01,1.000000,,2013-06-03 09:53:00,
2013-06-03 05:03:00,30.0,29.0,-100.00,South,179,0.0,0.0,96,0.00,,,0.01,1.000000,,2013-06-03 10:03:00,
2013-06-03 05:12:00,30.0,29.0,-100.00,South,179,0.0,0.0,96,0.00,,,0.01,1.000000,,2013-06-03 10:12:00,
2013-06-03 05:22:00,30.0,29.0,-100.00,South,179,0.0,0.0,96,0.00,,,0.01,1.000000,,2013-06-03 10:22:00,
2013-06-03 05:33:00,30.0,29.0,-100.00,South,179,0.0,0.0,96,0.00,,,0.01,1.000000,,2013-06-03 10:33:00,
2013-06-03 05:52:00,31.0,30.0,-100.00,SSE,152,0.0,0.0,96,0.00,,,0.01,7.000000,,2013-06-03 10:52:00,
2013-06-03 06:02:00,31.0,30.0,-100.00,SSE,152,0.0,0.0,96,0.00,,,0.01,7.000000,,2013-06-03 11:02:00,
2013-06-03 06:12:00,31.0,30.0,-100.00,SSE,152,0.0,0.0,96,0.00,,,0.01,7.000000,,2013-06-03 11:12:00,
2013-06-03 06:22:00,31.0,30.0,-100.00,SSE,152,0.0,0.0,96,0.00,,,0.01,7.000000,,2013-06-03 11:22:00,
2013-06-03 06:32:00,31.0,30.0,-100.00,SSE,152,0.0,0.0,96,0.00,,,0.01,7.000000,,2013-06-03 11:32:00,
2013-06-03 07:02:00,37.0,35.0,-100.00,South,169,0.0,2.0,91,0.00,,,0.01,104.000000,,2013-06-03 12:02:00,
2013-06-03 07:12:00,37.0,35.0,-100.00,South,169,0.0,2.0,91,0.00,,,0.01,104.000000,,2013-06-03 12:12:00,
2013-06-03 07:22:00,37.0,35.0,-100.00,South,169,0.0,2.0,91,0.00,,,0.01,104.000000,,2013-06-03 12:22:00,
2013-06-03 07:32:00,37.0,35.0,-100.00,South,169,0.0,2.0,91,0.00,,,0.01,104.000000,,2013-06-03 12:32:00,
2013-06-03 07:52:00,47.0,40.0,-100.00,ENE,78,1.0,2.0,76,0.00,,,0.00,254.000000,,2013-06-03 12:52:00,
2013-06-03 08:02:00,47.0,40.0,-100.00,ENE,78,1.0,2.0,76,0.00,,,0.00,254.000000,,2013-06-03 13:02:00,
2013-06-03 08:12:00,47.0,40.0,-100.00,ENE,78,1.0,2.0,76,0.00,,,0.00,254.000000,,2013-06-03 13:12:00,
2013-06-03 08:22:00,47.0,40.0,-100.00,ENE,78,1.0,2.0,76,0.00,,,0.00,254.000000,,2013-06-03 13:22:00,
2013-06-03 08:32:00,47.0,40.0,-100.00,ENE,78,1.0,2.0,76,0.00,,,0.00,254.000000,,2013-06-03 13:32:00,
2013-06-03 08:53:00,52.0,38.0,-100.00,NE,35,3.0,5.0,58,0.00,,,0.00,420.000000,,2013-06-03 13:53:00,
2013-06-03 09:02:00,52.0,38.0,-100.00,NE,35,3.0,5.0,58,0.00,,,0.00,420.000000,,2013-06-03 14:02:00,
2013-06-03 09:12:00,52.0,38.0,-100.00,NE,35,3.0,5.0,58,0.00,,,0.00,420.000000,,2013-06-03 14:12:00,
2013-06-03 09:22:00,52.0,38.0,-100.00,NE,35,3.0,5.0,58,0.00,,,0.00,420.000000,,2013-06-03 14:22:00,
2013-06-03 09:32:00,52.0,38.0,-100.00,NE,35,3.0,5.0,58,0.00,,,0.00,420.000000,,2013-06-03 14:32:00,
2013-06-03 10:02:00,53.0,36.0,-100.00,NNE,14,5.0,9.0,52,0.00,,,0.00,590.000000,,2013-06-03 15:02:00,
2013-06-03 10:12:00,53.0,36.0,-100.00,NNE,14,5.0,9.0,52,0.00,,,0.00,590.000000,,2013-06-03 15:12:00,
2013-06-03 10:22:00,53.0,36.0,-100.00,NNE,14,5.0,9.0,52,0.00,,,0.00,590.000000,,2013-06-03 15:22:00,
2013-06-03 10:33:00,53.0,36.0,-100.00,NNE,14,5.0,9.0,52,0.00,,,0.00,590.000000,,2013-06-03 15:33:00,
2013-06-03 10:53:00,55.0,35.0,-100.00,NNE,18,6.0,12.0,47,0.00,,,0.00,744.000000,,2013-06-03 15:53:00,
2013-06-03 11:03:00,55.0,35.0,-100.00,NNE,18,6.0,12.0,47,0.00,,,0.00,744.000000,,2013-06-03 16:03:00,
2013-06-03 11:13:00,55.0,35.0,-100.00,NNE,18,6.0,12.0,47,0.00,,,0.00,744.000000,,2013-06-03 16:13:00,
2013-06-03 11:23:00,55.0,35.0,-100.00,NNE,18,6.0,12.0,47,0.00,,,0.00,744.000000,,2013-06-03 16:23:00,
2013-06-03 11:33:00,55.0,35.0,-100.00,NNE,18,6.0,12.0,47,0.00,,,0.00,744.000000,,2013-06-03 16:33:00,
2013-06-03 12:02:00,57.0,35.0,-100.00,North,10,7.0,14.0,43,0.00,,,0.00,847.000000,,2013-06-03 17:02:00,
2013-06-03 12:12:00,57.0,35.0,-100.00,North,10,7.0,14.0,43,0.00,,,0.00,847.000000,,2013-06-03 17:12:00,
2013-06-03 12:22:00,57.0,35.0,-100.00,North,10,7.0,14.0,43,0.00,,,0.00,847.000000,,2013-06-03 17:22:00,
2013-06-03 12:33:00,57.0,35.0,-100.00,North,10,7.0,14.0,43,0.00,,,0.00,847.000000,,2013-06-03 17:33:00,
2013-06-03 12:52:00,59.0,35.0,-100.00,NNW,343,7.0,13.0,41,0.00,,,0.00,941.000000,,2013-06-03 17:52:00,
2013-06-03 13:02:00,59.0,35.0,-100.00,NNW,343,7.0,13.0,41,0.00,,,0.00,941.000000,,2013-06-03 18:02:00,
2013-06-03 13:12:00,59.0,35.0,-100.00,NNW,343,7.0,13.0,41,0.00,,,0.00,941.000000,,2013-06-03 18:12:00,
2013-06-03 13:22:00,59.0,35.0,-100.00,NNW,343,7.0,13.0,41,0.00,,,0.00,941.000000,,2013-06-03 18:22:00,
2013-06-03 13:32:00,59.0,35.0,-100.00,NNW,343,7.0,13.0,41,0.00,,,0.00,941.000000,,2013-06-03 18:32:00,
2013-06-03 14:03:00,60.0,36.0,-100.00,NNE,22,6.0,15.0,40,0.00,,,0.00,948.000000,,2013-06-03 19:03:00,
2013-06-03 14:12:00,60.0,36.0,-100.00,NNE,22,6.0,15.0,40,0.00,,,0.00,948.000000,,2013-06-03 19:12:00,
2013-06-03 14:22:00,60.0,36.0,-100.00,NNE,22,6.0,15.0,40,0.00,,,0.00,948.000000,,2013-06-03 19:22:00,
2013-06-03 14:32:00,60.0,36.0,-100.00,NNE,22,6.0,15.0,40,0.00,,,0.00,948.000000,,2013-06-03 19:32:00,
2013-06-03 14:53:00,61.0,34.0,-100.00,North,6,7.0,14.0,36,0.00,,,0.00,943.000000,,2013-06-03 19:53:00,
2013-06-03 15:02:00,61.0,34.0,-100.00,North,6,7.0,14.0,36,0.00,,,0.00,943.000000,,2013-06-03 20:02:00,
2013-06-03 15:12:00,61.0,34.0,-100.00,North,6,7.0,14.0,36,0.00,,,0.00,943.000000,,2013-06-03 20:12:00,
2013-06-03 15:22:00,61.0,34.0,-100.00,North,6,7.0,14.0,36,0.00,,,0.00,943.000000,,2013-06-03 20:22:00,
2013-06-03 15:32:00,61.0,34.0,-100.00,North,6,7.0,14.0,36,0.00,,,0.00,943.000000,,2013-06-03 20:32:00,
2013-06-03 15:52:00,61.0,33.0,-100.00,NNE,19,7.0,17.0,35,0.00,,,0.00,728.000000,,2013-06-03 20:52:00,
2013-06-03 16:02:00,61.0,33.0,-100.00,NNE,19,7.0,17.0,35,0.00,,,0.00,728.000000,,2013-06-03 21:02:00,
2013-06-03 16:12:00,61.0,33.0,-100.00,NNE,19,7.0,17.0,35,0.00,,,0.00,728.000000,,2013-06-03 21:12:00,
2013-06-03 16:22:00,61.0,33.0,-100.00,NNE,19,7.0,17.0,35,0.00,,,0.00,728.000000,,2013-06-03 21:22:00,
2013-06-03 16:33:00,61.0,33.0,-100.00,NNE,19,7.0,17.0,35,0.00,,,0.00,728.000000,,2013-06-03 21:33:00,
2013-06-03 16:53:00,59.0,29.0,-100.00,North,11,8.0,18.0,32,0.00,,,0.00,605.000000,,2013-06-03 21:53:00,
2013-06-03 17:03:00,59.0,29.0,-100.00,North,11,8.0,18.0,32,0.00,,,0.00,605.000000,,2013-06-03 22:03:00,
2013-06-03 17:12:00,59.0,29.0,-100.00,North,11,8.0,18.0,32,0.00,,,0.00,605.000000,,2013-06-03 22:12:00,
2013-06-03 17:22:00,59.0,29.0,-100.00,North,11,8.0,18.0,32,0.00,,,0.00,605.000000,,2013-06-03 22:22:00,
2013-06-03 17:32:00,59.0,29.0,-100.00,North,11,8.0,18.0,32,0.00,,,0.00,605.000000,,2013-06-03 22:32:00,
2013-06-03 17:53:00,57.0,25.0,-100.00,North,11,6.0,12.0,29,0.00,,,0.00,317.000000,,2013-06-03 22:53:00,
2013-06-03 18:02:00,57.0,25.0,-100.00,North,11,6.0,12.0,29,0.00,,,0.00,317.000000,,2013-06-03 23:02:00,
2013-06-03 18:12:00,57.0,25.0,-100.00,North,11,6.0,12.0,29,0.00,,,0.00,317.000000,,2013-06-03 23:12:00,
2013-06-03 18:22:00,57.0,25.0,-100.00,North,11,6.0,12.0,29,0.00,,,0.00,317.000000,,2013-06-03 23:22:00,
2013-06-03 18:32:00,57.0,25.0,-100.00,North,11,6.0,12.0,29,0.00,,,0.00,317.000000,,2013-06-03 23:32:00,
2013-06-03 19:02:00,58.0,24.0,-100.00,NE,43,6.0,9.0,27,0.00,,,0.00,269.000000,,2013-06-04 00:02:00,
2013-06-03 19:12:00,58.0,24.0,-100.00,NE,43,6.0,9.0,27,0.00,,,0.00,269.000000,,2013-06-04 00:12:00,
2013-06-03 19:22:00,58.0,24.0,-100.00,NE,43,6.0,9.0,27,0.00,,,0.00,269.000000,,2013-06-04 00:22:00,
2013-06-03 19:32:00,58.0,24.0,-100.00,NE,43,6.0,9.0,27,0.00,,,0.00,269.000000,,2013-06-04 00:32:00,
2013-06-03 19:52:00,55.0,26.0,-100.00,NE,44,4.0,7.0,33,0.00,,,0.00,120.000000,,2013-06-04 00:52:00,
2013-06-03 20:02:00,55.0,26.0,-100.00,NE,44,4.0,7.0,33,0.00,,,0.00,120.000000,,2013-06-04 01:02:00,
2013-06-03 20:12:00,55.0,26.0,-100.00,NE,44,4.0,7.0,33,0.00,,,0.00,120.000000,,2013-06-04 01:12:00,
2013-06-03 20:22:00,55.0,26.0,-100.00,NE,44,4.0,7.0,33,0.00,,,0.00,120.000000,,2013-06-04 01:22:00,
2013-06-03 20:32:00,55.0,26.0,-100.00,NE,44,4.0,7.0,33,0.00,,,0.00,120.000000,,2013-06-04 01:32:00,
2013-06-03 20:53:00,49.0,34.0,-100.00,SSE,153,0.0,3.0,57,0.00,,,0.00,27.000000,,2013-06-04 01:53:00,
2013-06-03 21:02:00,49.0,34.0,-100.00,SSE,153,0.0,3.0,57,0.00,,,0.00,27.000000,,2013-06-04 02:02:00,
2013-06-03 21:12:00,49.0,34.0,-100.00,SSE,153,0.0,3.0,57,0.00,,,0.00,27.000000,,2013-06-04 02:12:00,
2013-06-03 21:22:00,49.0,34.0,-100.00,SSE,153,0.0,3.0,57,0.00,,,0.00,27.000000,,2013-06-04 02:22:00,
2013-06-03 21:32:00,49.0,34.0,-100.00,SSE,153,0.0,3.0,57,0.00,,,0.00,27.000000,,2013-06-04 02:32:00,
2013-06-03 21:52:00,45.0,36.0,-100.00,South,185,0.0,0.0,71,0.00,,,0.00,1.000000,,2013-06-04 02:52:00,
2013-06-03 22:02:00,45.0,36.0,-100.00,South,185,0.0,0.0,71,0.00,,,0.00,1.000000,,2013-06-04 03:02:00,
2013-06-03 22:12:00,45.0,36.0,-100.00,South,185,0.0,0.0,71,0.00,,,0.00,1.000000,,2013-06-04 03:12:00,
2013-06-03 22:22:00,45.0,36.0,-100.00,South,185,0.0,0.0,71,0.00,,,0.00,1.000000,,2013-06-04 03:22:00,
2013-06-03 22:32:00,45.0,36.0,-100.00,South,185,0.0,0.0,71,0.00,,,0.00,1.000000,,2013-06-04 03:32:00,
2013-06-03 22:54:00,43.0,38.0,-100.00,South,177,0.0,3.0,81,0.00,,,0.00,1.000000,,2013-06-04 03:54:00,
2013-06-03 23:03:00,43.0,38.0,-100.00,South,177,0.0,3.0,81,0.00,,,0.00,1.000000,,2013-06-04 04:03:00,
2013-06-03 23:13:00,43.0,38.0,-100.00,South,177,0.0,3.0,81,0.00,,,0.00,1.000000,,2013-06-04 04:13:00,
2013-06-03 23:23:00,43.0,38.0,-100.00,South,177,0.0,3.0,81,0.00,,,0.00,1.000000,,2013-06-04 04:23:00,
2013-06-03 23:33:00,43.0,38.0,-100.00,South,177,0.0,3.0,81,0.00,,,0.00,1.000000,,2013-06-04 04:33:00,
2013-06-03 23:53:00,42.0,38.0,-100.00,SSE,155,0.0,2.0,84,0.00,,,0.00,1.000000,,2013-06-04 04:53:00,